Weather History for Palmer, AK

Change the Weather History Date:

Wednesday, January 9, 2013

  Actual Average Record
Temperature  
Mean Temperature 16 °F -  
Max Temperature 21 °F 19 °F 44 °F (1985)
Min Temperature 12 °F 3 °F -28 °F (1963)
Degree Days  
Heating Degree Days 48    
Moisture  
Dew Point 10 °F    
Average Humidity 77    
Maximum Humidity 92    
Minimum Humidity 60    
Precipitation  
Precipitation 0.00 in - - ()
Sea Level Pressure  
Sea Level Pressure 30.03 in    
Wind  
Wind Speed 8 mph (North)    
Max Wind Speed 10 mph    
Max Gust Speed -    
Visibility 10 miles    
Events      
Averages and records for this station are not official NWS values.
T = Trace of Precipitation, MM = Missing Value Source: NWS Daily Summary

Daily Weather History Graph

Daily Weather History Graph

Search for Another Location

Airport:

Trip Planner

Search our weather history database for the weather conditions in past years. The results will help you decide how hot, cold, wet, or windy it might be!

Date:

Astronomy

Jan. 09, 2013 Rise Set
Actual Time 10:05 AM AKST 4:02 PM AKST
Civil Twilight 9:06 AM AKST 5:01 PM AKST
Nautical Twilight 8:07 AM AKST 6:00 PM AKST
Astronomical Twilight 7:14 AM AKST 6:53 PM AKST
Moon 7:57 AM AKST (1/9) 2:12 PM AKST (1/9)
Length of Visible Light 7h 55m
Length of Day
5h 56m
Waning Crescent, 5% of the Moon is Illuminated
Jan 9
Waning Crescent
Jan 11
New
Jan 18
First Quarter
Jan 26
Full
Feb 3
Last Quarter

Hourly Weather History & Observations

Time (AKST) Temp. Windchill Dew Point Humidity Pressure Visibility Wind Dir Wind Speed Gust Speed Precip Events Conditions
12:53 AM 17.1 °F 6.6 °F 10.0 °F 74% 30.03 in 10.0 mi North 8.1 mph - N/A   Clear
1:53 AM 17.1 °F 6.6 °F 10.0 °F 74% 30.04 in 10.0 mi NNW 8.1 mph - N/A   Scattered Clouds
2:00 AM 17.6 °F 6.4 °F 10.4 °F 73% 30.02 in 10.0 mi North 9.2 mph - N/A   Mostly Cloudy
2:37 AM 15.8 °F 3.4 °F 10.4 °F 79% 30.03 in 10.0 mi North 10.4 mph - N/A   Scattered Clouds
2:53 AM 16.0 °F 5.3 °F 10.0 °F 77% 30.06 in 10.0 mi NNW 8.1 mph - N/A   Clear
3:31 AM 15.8 °F 5.1 °F 10.4 °F 79% 30.05 in 10.0 mi North 8.1 mph - N/A   Mostly Cloudy
3:42 AM 15.8 °F 4.2 °F 10.4 °F 79% 30.05 in 10.0 mi North 9.2 mph - N/A   Scattered Clouds
3:53 AM 15.1 °F 2.5 °F 10.0 °F 80% 30.07 in 10.0 mi NNW 10.4 mph - N/A   Partly Cloudy
4:53 AM 15.1 °F 3.3 °F 9.0 °F 77% 30.08 in 10.0 mi North 9.2 mph - N/A   Clear
5:53 AM 14.0 °F 1.2 °F 9.0 °F 80% 30.08 in 10.0 mi North 10.4 mph - N/A   Clear
6:53 AM 14.0 °F 1.2 °F 8.1 °F 77% 30.07 in 10.0 mi NNW 10.4 mph - N/A   Clear
7:53 AM 12.9 °F -0.2 °F 8.1 °F 81% 30.08 in 10.0 mi NNW 10.4 mph - N/A   Clear
9:53 AM 14.0 °F 1.2 °F 8.1 °F 77% 30.09 in 10.0 mi North 10.4 mph - N/A   Clear
10:53 AM 14.0 °F 2.0 °F 8.1 °F 77% 30.09 in 10.0 mi NNW 9.2 mph - N/A   Clear
11:53 AM 15.1 °F 4.2 °F 8.1 °F 74% 30.10 in 10.0 mi North 8.1 mph - N/A   Clear
12:53 PM 16.0 °F 3.6 °F 9.0 °F 74% 30.07 in 10.0 mi North 10.4 mph - N/A   Clear
1:53 PM 18.0 °F 7.7 °F 10.0 °F 71% 30.07 in 10.0 mi North 8.1 mph - N/A   Clear
2:53 PM 19.0 °F 8.2 °F 10.0 °F 68% 30.05 in 10.0 mi NNW 9.2 mph - N/A   Clear
3:53 PM 19.9 °F - 10.0 °F 65% 30.04 in 10.0 mi Calm Calm - N/A   Clear
4:53 PM 15.1 °F 9.4 °F 10.9 °F 84% 30.01 in 10.0 mi NNE 3.5 mph - N/A   Overcast
5:53 PM 21.9 °F 13.4 °F 10.9 °F 63% 29.98 in 10.0 mi North 6.9 mph - N/A   Overcast
6:53 PM 21.9 °F 17.2 °F 10.0 °F 60% 29.96 in 10.0 mi Variable 3.5 mph - N/A   Overcast
7:53 PM 17.1 °F 10.0 °F 12.9 °F 84% 29.96 in 10.0 mi SE 4.6 mph - N/A   Overcast
8:53 PM 16.0 °F - 14.0 °F 92% 29.94 in 10.0 mi Calm Calm - N/A   Overcast
9:53 PM 16.0 °F 10.4 °F 12.0 °F 84% 29.96 in 10.0 mi East 3.5 mph - N/A   Partly Cloudy
10:53 PM 16.0 °F - 14.0 °F 92% 29.96 in 10.0 mi Calm Calm - N/A   Clear
11:53 PM 16.0 °F - 14.0 °F 92% 29.96 in 10.0 mi Calm Calm - N/A   Overcast